| time (UTC) | temp F | wind direction | speed MPH | gust MPH | rain 1hr in | rain 24hr in | rain mn in | humidity % | barometer mb |
| 20260504174508 | 77 | 315 | 1.0 | 5.0 | 0.00 | 0.00 | 0.00 | 38 | 1015.5 |
| 20260504173013 | 76 | 312 | 4.0 | 8.0 | 0.00 | 0.00 | 0.00 | 35 | 1015.6 |
| 20260504171533 | 75 | 288 | 0.0 | 9.0 | 0.00 | 0.00 | 0.00 | 37 | 1015.7 |
| 20260504081527 | 42 | 197 | 0.0 | 0.0 | 0.00 | 0.00 | 0.00 | 83 | 1017.2 |
| 20260504050019 | 46 | 197 | 0.0 | 2.0 | 0.00 | 0.00 | 0.00 | 69 | 1017.3 |
| 20260504044526 | 46 | 197 | 0.0 | 2.0 | 0.00 | 0.00 | 0.00 | 73 | 1017.2 |
| 20260504043006 | 45 | 163 | 0.0 | 2.0 | 0.00 | 0.00 | 0.00 | 72 | 1016.8 |
| 20260504041506 | 45 | 163 | 0.0 | 0.0 | 0.00 | 0.00 | 0.00 | 72 | 1017.0 |
| 20260504040007 | 45 | 163 | 0.0 | 0.0 | 0.00 | 0.00 | 0.00 | 72 | 1017.1 |
| 20260504034508 | 45 | 163 | 0.0 | 0.0 | 0.00 | 0.00 | 0.00 | 71 | 1017.1 |
| 20260504033004 | 45 | 163 | 0.0 | 0.0 | 0.00 | 0.00 | 0.00 | 70 | 1017.1 |
| 20260504031504 | 46 | 163 | 0.0 | 0.0 | 0.00 | 0.00 | 0.00 | 68 | 1017.1 |
| 20260504030007 | 46 | 163 | 0.0 | 0.0 | 0.00 | 0.00 | 0.00 | 65 | 1017.3 |
| 20260504024509 | 47 | 163 | 0.0 | 0.0 | 0.00 | 0.00 | 0.00 | 64 | 1017.2 |
| 20260504023009 | 47 | 163 | 0.0 | 0.0 | 0.00 | 0.00 | 0.00 | 63 | 1017.1 |
| 20260504021504 | 48 | 163 | 0.0 | 0.0 | 0.00 | 0.00 | 0.00 | 62 | 1016.9 |
| 20260504020017 | 48 | 163 | 0.0 | 0.0 | 0.00 | 0.00 | 0.00 | 62 | 1016.7 |
| 20260504014513 | 49 | 163 | 0.0 | 0.0 | 0.00 | 0.00 | 0.00 | 60 | 1016.6 |
| 20260504013012 | 50 | 163 | 0.0 | 0.0 | 0.00 | 0.00 | 0.00 | 58 | 1016.5 |
| 20260504011507 | 52 | 163 | 0.0 | 0.0 | 0.00 | 0.00 | 0.00 | 55 | 1016.5 |
| 20260504010007 | 53 | 163 | 0.0 | 0.0 | 0.00 | 0.00 | 0.00 | 52 | 1016.5 |
| 20260504004512 | 54 | 163 | 0.0 | 0.0 | 0.00 | 0.00 | 0.00 | 49 | 1016.4 |
| 20260504003009 | 56 | 163 | 0.0 | 0.0 | 0.00 | 0.00 | 0.00 | 44 | 1016.2 |
| 20260504001508 | 57 | 163 | 0.0 | 0.0 | 0.00 | 0.00 | 0.00 | 42 | 1016.1 |
| 20260504000007 | 59 | 163 | 0.0 | 0.0 | 0.00 | 0.00 | 0.00 | 40 | 1016.0 |
| 20260503234514 | 60 | 194 | 0.0 | 1.0 | 0.00 | 0.00 | 0.00 | 37 | 1016.0 |
| 20260503233008 | 61 | 319 | 0.0 | 2.0 | 0.00 | 0.00 | 0.00 | 36 | 1016.1 |
| 20260503231508 | 62 | 192 | 0.0 | 2.0 | 0.00 | 0.00 | 0.00 | 35 | 1015.9 |
| 20260503230008 | 63 | 196 | 1.0 | 3.0 | 0.00 | 0.00 | 0.00 | 30 | 1016.0 |
| 20260503224511 | 64 | 148 | 0.0 | 2.0 | 0.00 | 0.00 | 0.00 | 29 | 1016.1 |
| 20260503223009 | 66 | 138 | 1.0 | 4.0 | 0.00 | 0.00 | 0.00 | 27 | 1016.2 |
| 20260503221512 | 67 | 171 | 0.0 | 3.0 | 0.00 | 0.00 | 0.00 | 29 | 1016.3 |
| 20260503220029 | 67 | 203 | 0.0 | 3.0 | 0.00 | 0.00 | 0.00 | 27 | 1016.5 |
| 20260503214504 | 67 | 190 | 1.0 | 4.0 | 0.00 | 0.00 | 0.00 | 27 | 1016.7 |
| 20260503213011 | 68 | 253 | 0.0 | 5.0 | 0.00 | 0.00 | 0.00 | 26 | 1016.7 |
| 20260503211511 | 68 | 51 | 0.0 | 4.0 | 0.00 | 0.00 | 0.00 | 27 | 1016.7 |
| 20260503210012 | 67 | 284 | 1.0 | 3.0 | 0.00 | 0.00 | 0.00 | 29 | 1016.8 |
| 20260503204504 | 67 | 209 | 2.0 | 7.0 | 0.00 | 0.00 | 0.00 | 26 | 1016.8 |
| 20260503203020 | 67 | 299 | 1.0 | 4.0 | 0.00 | 0.00 | 0.00 | 26 | 1017.1 |
| 20260503201515 | 68 | 299 | 1.0 | 3.0 | 0.00 | 0.00 | 0.00 | 26 | 1017.2 |
| 20260503200012 | 67 | 248 | 1.0 | 7.0 | 0.00 | 0.00 | 0.00 | 27 | 1017.4 |
| 20260503194512 | 66 | 110 | 1.0 | 7.0 | 0.00 | 0.00 | 0.00 | 27 | 1017.6 |
| 20260503193008 | 67 | 159 | 3.0 | 9.0 | 0.00 | 0.00 | 0.00 | 27 | 1017.7 |
| 20260503191518 | 66 | 209 | 1.0 | 9.0 | 0.00 | 0.00 | 0.00 | 31 | 1017.9 |
| 20260503190013 | 65 | 10 | 1.0 | 7.0 | 0.00 | 0.00 | 0.00 | 32 | 1018.1 |
| 20260503184514 | 65 | 92 | 2.0 | 4.0 | 0.00 | 0.00 | 0.00 | 29 | 1018.3 |
| 20260503183019 | 65 | 238 | 2.0 | 6.0 | 0.00 | 0.00 | 0.00 | 28 | 1018.6 |
| 20260503181508 | 64 | 167 | 1.0 | 7.0 | 0.00 | 0.00 | 0.00 | 34 | 1018.7 |